Location: Clermont
(50.2608°N, 4.3172°E)
Time: 16:56:13
(UTC+00:00)

Cosmos 1666 Rocket - Pass Details

Date: 13 August 2020
Orbit: 605 x 632 km, 82.5° (Epoch: 25 September)

Event Time Altitude Azimuth Distance (km) Brightness Sun altitude
Rises 20:08:03 0° 190° (S) 2,849 6.7 -9.6°
Reaches altitude 10° 20:10:15 10° 191° (S) 1,951 5.9 -9.9°
Maximum altitude 20:14:34 85° 278° (W) 618 3.6 -10.4°
Drops below altitude 10° 20:18:58 10° 9° (N) 1,978 6.6 -11.0°
Sets 20:21:12 0° 10° (N) 2,892 7.4 -11.2°
